Simultaneous Nadir Overpasses (SNOs) Predictions

Prediction of SNOs between METOP-B and NOAA-19 Satellite Orbit:

Table of predicted SNOs for the next 14.0 days since TLE Epoch: 3/4/2023
Index Date (METOP-B) Time (METOP-B) Lat,Lon (METOP-B) SZA (METOP-B ) Date (NOAA-19) Time (NOAA-19) Lat,Lon (NOAA-19) SZA (NOAA-19 ) Distance(km) Time Diff (sec)
1 03/13/2023 08:10:10 -80.92, -87.81 94.74 03/13/2023 08:09:03 -80.93, -87.68 94.75 2.44 67
2 03/13/2023 09:00:50 80.93, 79.63 85.27 03/13/2023 09:00:07 80.93, 79.68 85.26 1.01 43
3 03/13/2023 09:51:31 -80.93,-112.95 94.74 03/13/2023 09:51:02 -80.93,-113.04 94.76 1.62 29
4 03/13/2023 10:42:11 80.94, 54.48 85.26 03/13/2023 10:42:06 80.93, 54.31 85.24 3.12 5
5 03/13/2023 11:32:53 -80.92,-138.46 94.79 03/13/2023 11:33:01 -80.93,-138.41 94.78 0.96 8
6 03/13/2023 12:23:33 80.93, 28.98 85.22 03/13/2023 12:24:05 80.93, 28.94 85.22 0.63 32
7 03/13/2023 13:14:14 -80.93,-163.60 94.79 03/13/2023 13:15:00 -80.93,-163.78 94.79 3.16 46



Historial Predications of SNOs between METOP-B and NOAA-19
